Regional Weather Roundup
Issued by NWS

Home | Current Version | Previous Version | Graphics & Text | Print | Product List | Glossary On
Versions: 1 2 3 4 5 6 7 8 9 10 11 12 13 14 15 16 17 18 19 20 21 22 23 24 25 26 27 28 29 30 31 32 33 34 35 36 37 38 39 40 41 42 43 44 45 46 47 48 49 50
627
ASUS43 KMPX 251010
RWRMN
WEATHER ROUNDUP FOR MINNESOTA
NATIONAL WEATHER SERVICE TWIN CITIES/CHANHASSEN MN
500 AM CDT WED APR 25 2018


NOTE: "FAIR" INDICATES FEW OR NO CLOUDS BELOW 12,000 FEET WITH NO
SIGNIFICANT WEATHER AND/OR OBSTRUCTIONS TO VISIBILITY. N/A MEANS
CURRENT SKY AND/OR WEATHER CONDITIONS ARE NOT AVAILABLE.

MNZ060>063-068>070-251100-
   Twin Cities Metro

CITY           SKY/WX    TMP DP  RH WIND       PRES   REMARKS
TWIN CITIES    FAIR      37  26  64 N7        30.25F
ST PAUL        FAIR      37  26  64 N6        30.26F
CRYSTAL        FAIR      34  24  67 N6        30.25S WCI  29
BLAINE         FAIR      34  25  69 N7        30.25F WCI  28
LAKEVILLE      FAIR      36  27  69 N5        30.24S
EDEN PRAIRIE   FAIR      37  25  61 N7        30.24S
SOUTH ST PAUL  FAIR      37  25  61 N5        30.25S
LAKE ELMO      FAIR      34  27  75 CALM      30.25F
$$
MNZ001>005-007-008-013>017-022>024-027-028-251100-
   Northwest Minnesota

CITY           SKY/WX    TMP DP  RH WIND       PRES   REMARKS
BEMIDJI        FAIR      22  18  86 CALM      30.25F
HALLOCK        FAIR      30  27  86 S9        30.20F WCI  22
ROSEAU         FAIR      34  27  75 S10       30.22F WCI  26
WARROAD        FAIR      32  25  74 S5        30.22F WCI  27
THIEF RVR FALL FAIR      31  25  78 S7        30.25F WCI  24
CROOKSTON      FAIR      30  27  86 S7        30.26F WCI  23
FOSSTON        FAIR      25  21  86 S5        30.26F WCI  19
DETROIT LAKES  FAIR      30  28  93 CALM      30.27F
MOORHEAD       FAIR      30  27  86 S5        30.29S WCI  25
PARK RAPIDS    FAIR      25  21  85 CALM      30.26F
MAHNOMEN       FAIR      30  24  79 S5        30.26S WCI  25
$$
MNZ006-009>011-018-025>026-251100-
   North Central Minnesota

CITY           SKY/WX    TMP DP  RH WIND       PRES   REMARKS
BAUDETTE       FAIR      30  22  72 SW5       30.22F WCI  25
FLAG ISLAND    FAIR      30  21  69 S5        30.20F WCI  25
INTL FALLS     FAIR      21  19  92 CALM      30.23F
WASKISH        FAIR      25  21  86 CALM      30.24F
BIG FORK       FAIR      23  21  93 CALM      30.25F
LONGVILLE      FAIR      23  21  93 CALM      30.27F
GRAND RAPIDS   FAIR      25  22  88 CALM      30.28F
CRANE LAKE     FAIR      19  18  93 CALM      30.27F
ORR            FAIR      21  18  86 CALM      30.22F
COOK           FAIR      21  21 100 CALM      30.25F
WALKER         FAIR      24  20  85 CALM      30.26S
$$
MNZ012-019>021-037-251100-
   Northeast Minnesota

CITY           SKY/WX    TMP DP  RH WIND       PRES   REMARKS
DULUTH         FAIR      29  21  72 N6        30.24F WCI  23
ELY            FAIR      21  19  93 CALM      30.24F
HIBBING        FAIR      21  18  88 CALM      30.26S
EVELETH        FAIR      22  20  90 CALM      30.26F
DULUTH HARBOR  FAIR      34  28  80 N6        30.28F WCI  29
TWO HARBORS    FAIR      32  23  69 N3        30.24F
SILVER BAY     FAIR      23  21  93 CALM      30.24F
GRAND MARAIS     N/A     31  22  69 N5        30.26F WCI  26
G MARAIS ARPRT FAIR      23  18  80 CALM      30.21F
$$
MNZ029>031-032-039>041-046>048-054>057-064-251100-
   West Central Minnesota

CITY           SKY/WX    TMP DP  RH WIND       PRES   REMARKS
FERGUS FALLS   FAIR      34  25  69 SE8       30.27S WCI  27
WHEATON        CLEAR     30  27  86 SW5       30.33S WCI  25
MORRIS         CLEAR     30  28  93 CALM      30.29S
ALEXANDRIA     FAIR      33  22  63 E3        30.28F
ELBOW LAKE     FAIR      30  26  86 SE3       30.29F
WADENA         FAIR      27 N/A N/A CALM      30.27F
GLENWOOD       FAIR      30  25  80 N3        30.29S
APPLETON       CLEAR     30  28  93 NW5       30.30S WCI  25
BENSON         CLEAR     27  25  93 CALM      30.32R
ORTONVILLE     CLEAR     30  27  86 NW3       30.31S
WILLMAR        FAIR      30  27  86 N5        30.31S WCI  25
$$
MNZ033>034-036-042>043-049>051-058-059-251100-
   Central Minnesota

CITY           SKY/WX    TMP DP  RH WIND       PRES   REMARKS
ST CLOUD       FAIR      29  25  85 N5        30.28S WCI  24
SAUK CENTRE    FAIR      29  23  79 CALM      30.29S
PAYNESVILLE    FAIR      31  27  84 CALM      30.29S
AITKIN         FAIR      19  18  93 CALM      30.26S
PINE RIVER     FAIR      21  19  93 CALM      30.30S
BRAINERD       FAIR      26  21  81 CALM      30.28S
STAPLES        FAIR      25  21  86 CALM      30.28S
LONG PRAIRIE   FAIR      30  23  74 CALM      30.28F
LITTLE FALLS   FAIR      28  19  69 CALM      30.28F
LITCHFIELD     FAIR      34  27  75 CALM      30.28S
BUFFALO        FAIR      33  25  73 N3        30.28S
MAPLE LAKE     FAIR      32  28  83 N5        30.28S WCI  28
HUTCHINSON     FAIR      34  28  80 N3        30.28S
$$
MNZ037-044-045-052-053-251100-
   East Central Minnesota

CITY           SKY/WX    TMP DP  RH WIND       PRES   REMARKS
PRINCETON      FAIR      32  25  74 NW3       30.27F
MORA           FAIR      32  23  69 CALM      30.28F
CAMBRIDGE      FAIR      34  23  64 NW3       30.27S
RUSH CITY      FAIR      31  23  74 N3        30.27S
MOOSE LAKE     FAIR      28  21  74 CALM      30.25F
HINCKLEY       FAIR      32  25  74 N5        30.27S WCI  27
CLOQUET        FAIR      27  19  74 NW5       30.26S WCI  21
MCGREGOR       FAIR      27  23  86 CALM      30.27F
$$
MNZ071>073-080-081-089-090-097-098-251100-
   Southwest Minnesota

CITY           SKY/WX    TMP DP  RH WIND       PRES   REMARKS
MONTEVIDEO     CLEAR     30  27  86 NE5       30.30S WCI  25
GRANITE FALLS  CLEAR     35  30  83 NW7       30.30F WCI  29
CANBY          CLEAR     33  29  86 NW6       30.31S WCI  28
MARSHALL       CLEAR     31  29  92 NW10      30.29S WCI  22
REDWOOD FALLS  CLEAR     33  27  78 N6        30.27S WCI  28
OLIVIA         CLEAR     32  28  86 N6        30.27F WCI  26
PIPESTONE      CLEAR    N/A N/A N/A NE7       30.26F
WINDOM         CLEAR     34  19  55 N9        30.25S WCI  26
WORTHINGTON    CLEAR     35  29  78 N10       30.25F WCI  27
JACKSON        PTCLDY    34  30  86 N6        30.25S WCI  29
TRACY          CLEAR     34  32  91 NW6       30.28R WCI  29
SLAYTON        CLEAR     32  30  90 NW7       30.27S WCI  26
$$
MNZ065>067-074>077-082>085-091>093-251100-
   South Central Minnesota

CITY           SKY/WX    TMP DP  RH WIND       PRES   REMARKS
MANKATO        FAIR      36  28  73 N8        30.24S
NEW ULM        CLEAR     37  27  65 N6        30.26R
ST JAMES       CLEAR     34  30  86 W6        30.26S WCI  29
FAIRMONT       CLEAR     35  31  85 N8        30.24S WCI  29
GLENCOE        FAIR      35  30  81 N5        30.26S WCI  31
OWATONNA       FAIR      37  28  70 N7        30.22S
WASECA         FAIR      34  30  86 N8        30.24R WCI  27
ALBERT LEA     FAIR      36  27  69 N6        30.21S
$$
MNZ078>079-086>088-094>096-251100-
   Southeast Minnesota

CITY           SKY/WX    TMP DP  RH WIND       PRES   REMARKS
ROCHESTER      FAIR      36  31  82 N10       30.20R
RED WING       FAIR      37  25  60 W3        30.23S
STANTON        FAIR      37  28  71 N5        30.23S
DODGE CENTER   FAIR      36  28  75 N7        30.21S
WINONA         FAIR      36  34  93 NW7       30.19S
AUSTIN         FAIR      36  28  75 N3        30.20S
PRESTON        FAIR      37  32  82 N5        30.19S
$$
ABBREVIATIONS USED IN REMARKS
   TC - TEMPERATURES IN CELSIUS
  WCI - WIND CHILL INDEX
   HX - HEAT INDEX
  VSB - VISIBILITY
$$




USA.gov is the U.S. government's official web portal to all federal, state and local government web resources and services.